EW2664 Weather Reports


Display with metric or nautical units.
time (UTC)temp
F
wind
direction
speed
MPH
gust
MPH
rain 1hr
in
rain 24hr
in
rain mn
in
humidity
%
barometer
mb
20260903201513 83 89 0.0 2.0 0.00 0.14 0.09 76 1013.3
20260903200022 82 103 0.0 2.0 0.00 0.14 0.09 76 1013.5
20260903194528 82 89 1.0 3.0 0.00 0.14 0.09 80 1013.1
20260903193036 82 182 0.0 4.0 0.00 0.14 0.09 78 1013.4
20260903191534 85 173 2.0 12.0 0.00 0.14 0.09 70 1013.6
20260903190020 92 205 0.0 4.0 0.00 0.14 0.09 64 1013.4
20260903184525 92 334 1.0 3.0 0.00 0.14 0.09 65 1013.3
20260903183036 91 229 1.0 2.0 0.00 0.14 0.09 69 1013.4
20260903181534 91 113 1.0 3.0 0.00 0.14 0.09 68 1013.4
20260903180034 90 138 0.0 3.0 0.05 0.14 0.09 71 1013.5
20260903174525 88 106 0.0 2.0 0.08 0.14 0.09 74 1013.7
20260903173028 85 89 0.0 2.0 0.08 0.14 0.09 77 1014.0
20260903171550 83 94 1.0 3.0 0.08 0.14 0.09 79 1014.3
20260903170033 86 236 0.0 2.0 0.03 0.09 0.04 78 1014.8
20260903164518 89 167 0.0 4.0 0.00 0.06 0.01 66 1015.1
20260903163027 91 271 0.0 1.0 0.00 0.06 0.01 65 1014.9
20260903161531 92 252 0.0 2.0 0.00 0.06 0.01 66 1015.0
20260903160035 91 298 0.0 3.0 0.00 0.06 0.01 66 1015.1
20260903154538 90 247 1.0 2.0 0.00 0.06 0.01 68 1015.3
20260903153023 90 222 1.0 2.0 0.00 0.06 0.01 70 1015.2
20260903151534 89 327 0.0 2.0 0.00 0.06 0.01 72 1015.2
20260903150033 88 281 0.0 2.0 0.00 0.06 0.01 73 1015.1
20260903144537 88 271 0.0 0.0 0.00 0.06 0.01 73 1015.0
20260903143035 87 284 0.0 2.0 0.00 0.06 0.01 76 1014.9
20260903141534 87 250 0.0 0.0 0.00 0.06 0.01 77 1014.9
20260903140007 87 233 0.0 2.0 0.00 0.06 0.01 78 1015.0
20260903134514 87 227 0.0 0.0 0.00 0.06 0.01 78 1014.7
20260903133018 87 153 0.0 0.0 0.00 0.06 0.01 80 1014.7
20260903131528 85 109 0.0 0.0 0.00 0.06 0.01 81 1014.7
20260903130007 84 109 0.0 0.0 0.00 0.06 0.01 83 1014.7
20260903124513 83 94 0.0 0.0 0.00 0.06 0.01 85 1015.0
20260903123019 83 109 0.0 0.0 0.00 0.06 0.01 86 1015.0
20260903121533 81 91 0.0 0.0 0.00 0.06 0.01 91 1014.8
20260903120039 80 96 0.0 0.0 0.00 0.06 0.01 93 1014.7
20260903114510 79 88 0.0 0.0 0.00 0.06 0.01 93 1014.4
20260903113021 78 88 0.0 0.0 0.00 0.06 0.01 92 1014.4
20260903111532 78 88 0.0 0.0 0.00 0.06 0.01 92 1014.2
20260903110031 78 88 0.0 0.0 0.00 0.06 0.01 92 1013.9
20260903104551 78 88 0.0 0.0 0.00 0.06 0.01 92 1013.7
20260903103016 78 88 0.0 0.0 0.00 0.06 0.01 92 1013.5
20260903101527 78 88 0.0 0.0 0.00 0.06 0.01 92 1013.4
20260903100036 78 88 0.0 0.0 0.00 0.06 0.01 92 1013.3
20260903094545 78 88 0.0 0.0 0.00 0.06 0.01 92 1013.3
20260903093012 78 88 0.0 0.0 0.01 0.06 0.01 91 1013.2
20260903091519 78 88 0.0 0.0 0.01 0.06 0.01 91 1013.0
20260903090028 78 88 0.0 0.0 0.01 0.06 0.01 91 1013.0
20260903084529 78 88 0.0 0.0 0.01 0.06 0.01 91 1013.0
20260903083033 78 88 0.0 0.0 0.00 0.05 0.00 91 1013.1
20260903081516 78 88 0.0 0.0 0.00 0.05 0.00 90 1013.1
20260903080024 78 88 0.0 0.0 0.00 0.05 0.00 90 1013.1
20260903074531 78 88 0.0 0.0 0.00 0.05 0.00 90 1013.1
20260903073034 78 88 0.0 0.0 0.00 0.05 0.00 90 1013.0
20260903071535 78 103 0.0 0.0 0.00 0.05 0.00 90 1012.9
20260903070024 78 103 0.0 0.0 0.00 0.05 0.00 91 1013.4
20260903064527 78 103 0.0 0.0 0.00 0.05 0.00 91 1013.5
20260903063029 79 84 0.0 0.0 0.00 0.05 0.00 91 1013.3
20260903061534 79 78 0.0 0.0 0.00 0.05 0.00 90 1013.8
20260903060019 79 115 0.0 0.0 0.00 0.05 0.00 90 1013.8
20260903054525 79 92 0.0 2.0 0.00 0.05 0.00 90 1014.0
20260903053027 79 113 0.0 3.0 0.00 0.05 0.00 90 1014.5
20260903051552 79 159 0.0 2.0 0.00 0.05 0.00 90 1014.4
20260903050032 79 99 0.0 4.0 0.00 0.05 0.00 90 1014.4
20260903044528 79 90 0.0 2.0 0.00 0.05 0.00 90 1014.9
20260903043106 79 67 0.0 3.0 0.00 0.05 0.00 89 1014.8
20260903041531 80 38 0.0 3.0 0.02 0.05 0.00 88 1015.1
20260903040032 80 30 0.0 4.0 0.05 0.05 0.00 88 1015.3
20260903034538 81 40 0.0 2.0 0.05 0.05 0.05 87 1015.3
20260903033029 82 288 0.0 0.0 0.05 0.05 0.05 86 1015.4
20260903031530 83 17 1.0 2.0 0.03 0.03 0.03 83 1015.4
20260903030031 83 123 0.0 2.0 0.00 0.00 0.00 81 1015.4
20260903024531 83 36 0.0 3.0 0.00 0.00 0.00 82 1015.3
20260903023023 83 264 0.0 0.0 0.00 0.00 0.00 82 1014.8
20260903021532 83 263 0.0 0.0 0.00 0.00 0.00 81 1014.5
20260903020033 83 263 0.0 0.0 0.00 0.00 0.00 80 1014.4
20260903014532 83 263 0.0 0.0 0.00 0.00 0.00 80 1014.1
20260903013035 83 263 0.0 2.0 0.00 0.00 0.00 79 1014.1
20260903011527 84 244 0.0 0.0 0.00 0.00 0.00 79 1014.0
20260903010033 84 221 0.0 2.0 0.00 0.00 0.00 78 1014.2
20260903004516 84 221 0.0 1.0 0.00 0.00 0.00 77 1014.0
20260903003017 84 221 0.0 1.0 0.00 0.00 0.00 76 1013.7
20260903001517 84 221 0.0 0.0 0.00 0.00 0.00 74 1013.6
20260903000018 85 221 0.0 2.0 0.00 0.00 0.00 75 1013.5
20260902234523 85 198 0.0 2.0 0.00 0.00 0.00 75 1013.6
20260902233018 85 294 0.0 0.0 0.00 0.00 0.00 76 1013.4
20260902231518 85 294 0.0 1.0 0.00 0.00 0.00 75 1013.5
20260902230020 86 294 0.0 2.0 0.00 0.00 0.00 75 1013.5
20260902224526 86 268 0.0 2.0 0.00 0.00 0.00 74 1013.3
20260902223025 86 270 1.0 2.0 0.00 0.00 0.00 73 1013.0
20260902221520 87 290 0.0 2.0 0.00 0.00 0.00 72 1013.2
20260902220022 88 263 1.0 3.0 0.00 0.00 0.00 70 1013.2
20260902214524 88 171 0.0 2.0 0.00 0.00 0.00 72 1013.3
20260902213011 88 79 0.0 2.0 0.00 0.00 0.00 71 1013.3
20260902211517 87 89 0.0 2.0 0.00 0.00 0.00 73 1013.3
20260902210022 87 205 0.0 2.0 0.00 0.00 0.00 73 1013.3
20260902204507 87 76 1.0 2.0 0.00 0.00 0.00 73 1013.2
20260902203010 88 146 0.0 3.0 0.00 0.00 0.00 73 1013.3